Regional Weather Roundup
Issued by NWS

Home | Current Version | Previous Version | Graphics & Text | Print | Product List | Glossary On
Versions: 1 2 3 4 5 6 7 8 9 10 11 12 13 14 15 16 17 18 19 20 21 22 23 24 25 26 27 28 29 30 31 32 33 34 35 36 37 38 39 40 41 42 43 44 45 46 47 48 49 50
000
ASUS43 KLOT 111158
RWRIL

ILLINOIS REGIONAL WEATHER ROUNDUP
NATIONAL WEATHER SERVICE CHICAGO/ROMEOVILLE IL
700 AM CDT FRI JUL 11 2014

NOTE: "FAIR" INDICATES FEW OR NO CLOUDS BELOW 12,000 FEET WITH NO
SIGNIFICANT WEATHER AND/OR OBSTRUCTIONS TO VISIBILITY.

* THESE STATIONS ARE NOT UNDER NWS QUALITY CONTROL. THEY ALSO MAY NOT
  REPORT WEATHER SUCH AS PRECIPITATION OR FOG.

ILZ001-002-007-009-015-016-024-111300-
NORTHWEST ILLINOIS

CITY           SKY/WX    TMP DP  RH WIND       PRES   REMARKS
MOLINE         MOSUNNY   64  56  75 S3        30.17R
6HR MIN TEMP:  61; 6HR MAX TEMP:  66;

$$

ILZ003-004-008-010-011-017-018-111300-
NORTH CENTRAL ILLINOIS

CITY           SKY/WX    TMP DP  RH WIND       PRES   REMARKS
ROCKFORD       NOT AVBL
$$

ILZ005-006-012>014-019>023-111300-
NORTHEAST ILLINOIS

CITY           SKY/WX    TMP DP  RH WIND       PRES   REMARKS
CHICAGO-OHARE  MOSUNNY   64  53  67 S3        30.20R
6HR MIN TEMP:  60; 6HR MAX TEMP:  65;

CHICAGO-MIDWAY MOSUNNY   66  54  65 S6        30.20R
6HR MIN TEMP:  63; 6HR MAX TEMP:  68;

AURORA         SUNNY     61  55  81 CALM      30.21R
6HR MIN TEMP:  54; 6HR MAX TEMP:  61;

WAUKEGAN       SUNNY     63  56  78 CALM      30.20R
6HR MIN TEMP:  56; 6HR MAX TEMP:  63;

DUPAGE AIRPORT SUNNY     62  55  77 CALM      30.20R
6HR MIN TEMP:  57; 6HR MAX TEMP:  62;

WHEELING       SUNNY     64  57  78 CALM      30.21R
6HR MIN TEMP:  60; 6HR MAX TEMP:  64;

NORTHERLY ISL    N/A     66  54  65 S2          N/A
$$

LMZ740>746-111300-
SOUTHERN LAKE MICHIGAN

STATION/POSITION SKY/WX   TEMP    WIND        PRES    VSBY  WAVE
                          AIR SEA DIR/SP/G                  HT/PER
                          (F)     (DEG/KT/KT) (MB)    (MI)  (FT/S)
SOUTHERN BUOY              61 58  150/  4/  4 1022.5R         0
WAUKEGAN HARBOR            63     210/  6/  7 1023.4R
HARRISON CRIB              65     190/  8/  9   N/A
BURNHAM HARBOR             64     160/  4/  4   N/A
CALUMET HARBOR             63     180/  3/  4 1023.4R
MICHIGAN CITY              60     120/  8/  9   N/A
$$

ILZ025>027-034>036-040-047-049-050-058-095>099-111300-
WEST-CENTRAL ILLINOIS

CITY           SKY/WX    TMP DP  RH WIND       PRES   REMARKS
$$

ILZ028>032-037-038-041>044-048-051>054-059>061-111300-
CENTRAL ILLINOIS

CITY           SKY/WX    TMP DP  RH WIND       PRES   REMARKS
PEORIA         NOT AVBL
SPRINGFIELD    SUNNY     63  57  81 SE6       30.18S
6HR MIN TEMP:  57; 6HR MAX TEMP:  63;

TAYLORVILLE    NOT AVBL
$$

ILZ033-039-045-046-055>057-062-063-111300-
EAST-CENTRAL ILLINOIS

CITY           SKY/WX    TMP DP  RH WIND       PRES   REMARKS
CHAMPAIGN      MOSUNNY   63  58  83 E6        30.20R
MATTOON          N/A     63  56  78 SE5       30.18R
$$

ILZ079-100>102-111300-
SOUTHWEST ILLINOIS

CITY           SKY/WX    TMP DP  RH WIND       PRES   REMARKS
CAHOKIA*       SUNNY     65  61  87 CALM      30.17R
$$

ILZ064>066-069>071-074>076-080>082-084>086-088>090-092>094-111300-
SOUTH-CENTRAL ILLINOIS

CITY           SKY/WX    TMP DP  RH WIND       PRES   REMARKS
CARBONDALE     SUNNY     64  62  93 CALM      30.17R
6HR MIN TEMP:  61; 6HR MAX TEMP:  65;

MARION         SUNNY     64  63  94 CALM      30.09F
$$

ILZ067-068-072-073-078-083-087-091-111300-
SOUTHEAST ILLINOIS

CITY           SKY/WX    TMP DP  RH WIND       PRES   REMARKS
$$

ABBREVIATIONS USED IN REMARKS
   TC - TEMPERATURE IN CELSIUS
  WCI - WIND CHILL INDEX
   HX - HEAT INDEX
  VSB - VISIBILITY
$$




USA.gov is the U.S. government's official web portal to all federal, state and local government web resources and services.